STARLINK-32352, 61847

Orbit data source: Space-Track

STARLINK-32352, 61847 is a payload satellite owned by SpaceX/Seattle (US) in LEO that was launched on Thu, 07 Nov 2024 UTC via an FALCON 9 launch vehicle from the Air Force Eastern Test Range (AFETR). Payload-class satellites include a variety of spacecraft equipped with specific instruments for various scientific and technological missions. These include communications satellites like Starlink; space stations such as the ISS; scientific satellites like the Hubble; Earth observation satellites from companies like Planet Labs, Umbra, and HawkEye 360; GPS; miniature CubeSats for education and research; and military/defense satellites.

Loading next visibility...
Identifier
61847, 2024-202C
Orbit
LEO
Last TLE update
11 hours ago
Origin
Manufacturer
SpaceX/Seattle
Mission
Operational Commercial Communications
Bus & Motor
STARLINK V2M, Unknown motor
Mass
730 kg wet, ~700 kg dry
Launch date (UTC)
2024-11-07 (8 months ago)
Launch vehicle
FALCON 9
Launch site
Air Force Eastern Test Range (AFETR)
Object type
Payload
Rocket body
Debris
Shape & HBR
Box + 2 Pan, 29 m
Radar Cross Section
33.884 m², Large (>1 m²)

Expand to show TLE details & history

TLE from 11 hours ago
0 STARLINK-32352
1 61847U 24202C   25181.79085543  .00000168  00000-0  15620-4 0  9997
2 61847  42.9987 209.2823 0001395 289.9313  70.1388 15.27578117 36949
Epoch: 2025-06-30T18:58Z
TLE epoch observation values (Epoch: 2025-06-30T18:58:49.909Z)
Latitude
-0.00002°
Longitude
5.47872°
Altitude
482.505 km
Speed
7.626 km/s
True Right ascension
13h 57m 07s
True Declination
0° 00' 00"
Sunlit
Object was in daylight at epoch
Visualization orbit readout
Latitude
41.59225°
Longitude
111.59123°
Altitude
486.807 km
Speed
7.627 km/s
Apparent Right ascension
01h 18m 46s
Apparent Declination
6° 55' 26"
Sunlit
Object is in daylight
Visualization observer readout
Local Sidereal Time
18:02:53
Azimuth
72.304° E
Elevation
-9.798°
Doppler factor
1
Orbital elements
Apogee altitude
485.958 km
Perigee altitude
484.043 km
Semi-major axis
6,863.137 km
Eccentricity
0.00014
Inclination
42.9987°
RAAN
209.2823°
Arg. of periapsis
289.9313°
True anomaly
Unknown
Mean anomaly
70.1388°
Eccentric anomaly
Unknown
Mean motion
3.81733 °/min
Orbital period
94.31 mins
BSTAR
0.00001562
Loading maneuver chart data...
Loading SW <> Apogee altitude chart data...
Loading historical data...
Loading historical data...
Loading historical data...
Loading historical data...
Loading historical data...
Loading historical data...
Loading historical data...

STARLINK-32352 Visibility forecast

Observer location: undefined°, undefined°

Span
Click to sort rows by Start time (UTC) header in descending order
Start Az.
Max El. time (UTC)
Max El. Az.
Max El.
End time (UTC)
End Az.
6 mins2025-07-01 07:52:05.960Z283.609° WNW2025-07-01 07:55:05.960Z4.438° NNE38.074°2025-07-01 07:58:05.960Z73.15° E
5 mins2025-07-01 09:32:05.960Z292.231° WNW2025-07-01 09:34:05.960Z357.457° N44.207°2025-07-01 09:37:05.960Z101.405° ESE
5 mins2025-07-01 11:11:05.960Z257.413° W2025-07-01 11:13:05.960Z206.56° SW25.865°2025-07-01 11:16:05.960Z151.49° SSE
4 mins2025-07-02 04:08:05.960Z174.633° S2025-07-02 04:09:05.960Z154.727° SSE18.415°2025-07-02 04:12:05.960Z98.861° ESE
5 mins2025-07-02 05:46:05.960Z245.62° WSW2025-07-02 05:48:05.960Z178.164° S44.736°2025-07-02 05:51:05.960Z73.157° E
|